Regional Weather Roundup
Issued by NWS

Home | Current Version | Previous Version | Graphics & Text | Print | Product List | Glossary On
Versions: 1 2 3 4 5 6 7 8 9 10 11 12 13 14 15 16 17 18 19 20 21 22 23 24 25 26 27 28 29 30 31 32 33 34 35 36 37 38 39 40 41 42 43 44 45 46 47 48 49 50
000
ASUS43 KOAX 250210
RWRNE

WEATHER ROUNDUP FOR NEBRASKA
NATIONAL WEATHER SERVICE OMAHA NE
900 PM CDT FRI OCT 24 2014

NOTES: SATELLITE DATA IS BEING USED TO AUGMENT CLOUD COVER ABOVE
       12000 FEET.
       "FAIR" INDICATES FEW OR NO CLOUDS BELOW 12,000 FEET WITH NO
       SIGNIFICANT WEATHER AND/OR OBSTRUCTIONS TO VISIBILITY.

  * THESE STATIONS DO NOT REPORT WEATHER SUCH AS RAIN...SNOW OR FOG.

NEZ001>004-019>022-054>056-250300-
NEBRASKA PANHANDLE

CITY           SKY/WX    TMP DP  RH WIND       PRES   REMARKS
SCOTTSBLUFF    CLEAR     54  32  43 E3        30.08R
ALLIANCE       CLEAR     50  36  58 E5        30.06R
CHADRON        CLEAR     50  37  61 E3        30.06R
KIMBALL        CLEAR     55  29  36 CALM      30.13S
SIDNEY         CLEAR     49  35  58 CALM      30.12R
$$

NEZ057>060-069>072-079>082-250300-
SOUTHWEST NEBRASKA

CITY           SKY/WX    TMP DP  RH WIND       PRES   REMARKS
NORTH PLATTE   CLEAR     53  41  63 CALM      30.02S
IMPERIAL         N/A     61  35  37 CALM      30.06R
LEXINGTON      CLEAR     59  40  49 E6        30.02R
MCCOOK         CLEAR     68  32  26 S5        30.03R
OGALLALA       CLEAR     53  37  53 W5        30.05R
$$

NEZ005>010-023>029-035>040-094-250300-
NORTH CENTRAL NEBRASKA

CITY           SKY/WX    TMP DP  RH WIND       PRES   REMARKS
VALENTINE      CLEAR     59  33  37 N7        30.03R
AINSWORTH      CLEAR     55  37  50 SE7       30.03R
BROKEN BOW     CLEAR     50  41  71 CALM      30.02R
O`NEILL        CLEAR     59  40  49 CALM      30.02R
ORD            CLEAR     51  42  71 SW3       30.00R
THEDFORD       CLEAR     56  35  44 CALM      30.04R
$$

NEZ041-046>049-061>064-073>077-083>087-250300-
SOUTH CENTRAL NEBRASKA

CITY           SKY/WX    TMP DP  RH WIND       PRES   REMARKS
GRAND ISLAND   CLEAR     57  46  66 CALM      30.01R
AURORA         CLEAR     58  47  65 NE6       30.00R
HASTINGS       CLEAR     59  46  62 CALM      30.01R
HEBRON         CLEAR     59  50  71 CALM      29.99R
HOLDREGE       CLEAR     57  37  47 CALM      30.01S
KEARNEY *      CLEAR     55  45  67 NE6       30.01S
YORK           CLEAR     55  50  82 CALM      30.00R
$$

NEZ011>018-030>034-042>045-250300-
NORTHEAST NEBRASKA

CITY           SKY/WX    TMP DP  RH WIND       PRES   REMARKS
NORFOLK        CLEAR     52  45  77 CALM      29.99R
ALBION         CLEAR     52  42  70 CALM      30.01R
BLAIR          CLEAR     65  52  62 W6        29.97R
COLUMBUS *     CLEAR     54  46  76 CALM      30.01R
FREMONT        CLEAR     59  53  81 CALM      29.98R
TEKAMAH        CLEAR     55  50  83 CALM      29.97R
WAYNE          CLEAR     51  45  80 CALM      29.99S
$$

NEZ050>053-065>068-078-088>093-250300-
SOUTHEAST NEBRASKA

CITY           SKY/WX    TMP DP  RH WIND       PRES   REMARKS
LINCOLN        CLEAR     57  53  86 N8        29.98R
OMAHA EPPLEY   PTCLDY    60  56  86 CALM      29.97R
BEATRICE       CLEAR     58  54  85 NE6       29.97S
FALLS CITY     CLEAR     67  61  81 CALM      29.95R
NEBRASKA CITY  CLEAR     66  55  66 N3        29.96S
PLATTSMOUTH    CLEAR     62  55  79 CALM      29.97R
$$

NEZ044-045-051>053-067-250300-
OMAHA AREA

CITY           SKY/WX    TMP DP  RH WIND       PRES   REMARKS
OMAHA EPPLEY   PTCLDY    60  56  86 CALM      29.97R
BLAIR          CLEAR     65  52  62 W6        29.97R
FREMONT        CLEAR     59  53  81 CALM      29.98R
MILLARD        CLEAR     58  56  94 CALM      29.97R
OFFUTT AFB     CLEAR     55  55 100 NW2       29.96R
PLATTSMOUTH    CLEAR     62  55  79 CALM      29.97R
WAHOO          FAIR      56  48  73 NW6       29.98R
$$



USA.gov is the U.S. government's official web portal to all federal, state and local government web resources and services.